<?xml version="1.0"?>
<gpx xmlns="http://www.topografix.com/GPX/1/1" xmlns:xsi="http://www.w3.org/2001/XMLSchema-instance" version="1.1" creator="GPX RubyGem 1.0.0 -- http://dougfales.github.io/gpx/" xsi:schemaLocation="http://www.topografix.com/GPX/1/1 http://www.topografix.com/GPX/1/1/gpx.xsd">
  <metadata>
    <name/>
    <time>2026-05-08T05:56:34+00:00</time>
    <bound minlat="90.0" minlon="180.0" maxlat="-90.0" maxlon="-180.0"/>
  </metadata>
  <trk>
    <name/>
    <trkseg>
      <trkpt lat="45.550146" lon="9.527192">
        <time>1970-01-01T00:00:00+00:00</time>
        <ele>123.0</ele>
      </trkpt>
      <trkpt lat="45.550247" lon="9.52725">
        <time>1970-01-01T00:00:00+00:00</time>
        <ele>123.0</ele>
      </trkpt>
      <trkpt lat="45.550383" lon="9.52737">
        <time>1970-01-01T00:00:00+00:00</time>
        <ele>122.0</ele>
      </trkpt>
      <trkpt lat="45.550583" lon="9.52776">
        <time>1970-01-01T00:00:00+00:00</time>
        <ele>123.0</ele>
      </trkpt>
      <trkpt lat="45.550654" lon="9.528046">
        <time>1970-01-01T00:00:00+00:00</time>
        <ele>125.0</ele>
      </trkpt>
      <trkpt lat="45.551462" lon="9.529346">
        <time>1970-01-01T00:00:00+00:00</time>
        <ele>124.0</ele>
      </trkpt>
      <trkpt lat="45.551694" lon="9.529629">
        <time>1970-01-01T00:00:00+00:00</time>
        <ele>126.0</ele>
      </trkpt>
      <trkpt lat="45.55191" lon="9.529819">
        <time>1970-01-01T00:00:00+00:00</time>
        <ele>127.0</ele>
      </trkpt>
      <trkpt lat="45.552037" lon="9.529887">
        <time>1970-01-01T00:00:00+00:00</time>
        <ele>127.0</ele>
      </trkpt>
      <trkpt lat="45.552204" lon="9.529925">
        <time>1970-01-01T00:00:00+00:00</time>
        <ele>128.0</ele>
      </trkpt>
      <trkpt lat="45.552683" lon="9.530049">
        <time>1970-01-01T00:00:00+00:00</time>
        <ele>132.0</ele>
      </trkpt>
      <trkpt lat="45.552798" lon="9.53011">
        <time>1970-01-01T00:00:00+00:00</time>
        <ele>131.0</ele>
      </trkpt>
      <trkpt lat="45.55281" lon="9.530153">
        <time>1970-01-01T00:00:00+00:00</time>
        <ele>131.0</ele>
      </trkpt>
      <trkpt lat="45.552707" lon="9.530749">
        <time>1970-01-01T00:00:00+00:00</time>
        <ele>131.0</ele>
      </trkpt>
      <trkpt lat="45.552753" lon="9.530845">
        <time>1970-01-01T00:00:00+00:00</time>
        <ele>131.0</ele>
      </trkpt>
      <trkpt lat="45.55305" lon="9.531391">
        <time>1970-01-01T00:00:00+00:00</time>
        <ele>132.0</ele>
      </trkpt>
      <trkpt lat="45.553401" lon="9.531663">
        <time>1970-01-01T00:00:00+00:00</time>
        <ele>132.0</ele>
      </trkpt>
      <trkpt lat="45.553513" lon="9.531911">
        <time>1970-01-01T00:00:00+00:00</time>
        <ele>132.0</ele>
      </trkpt>
      <trkpt lat="45.553554" lon="9.532083">
        <time>1970-01-01T00:00:00+00:00</time>
        <ele>133.0</ele>
      </trkpt>
      <trkpt lat="45.553561" lon="9.532255">
        <time>1970-01-01T00:00:00+00:00</time>
        <ele>133.0</ele>
      </trkpt>
      <trkpt lat="45.554251" lon="9.532218">
        <time>1970-01-01T00:00:00+00:00</time>
        <ele>132.0</ele>
      </trkpt>
      <trkpt lat="45.55534" lon="9.532206">
        <time>1970-01-01T00:00:00+00:00</time>
        <ele>136.0</ele>
      </trkpt>
      <trkpt lat="45.555914" lon="9.532195">
        <time>1970-01-01T00:00:00+00:00</time>
        <ele>135.0</ele>
      </trkpt>
      <trkpt lat="45.555961" lon="9.532216">
        <time>1970-01-01T00:00:00+00:00</time>
        <ele>134.0</ele>
      </trkpt>
      <trkpt lat="45.556144" lon="9.532323">
        <time>1970-01-01T00:00:00+00:00</time>
        <ele>131.0</ele>
      </trkpt>
      <trkpt lat="45.556176" lon="9.532341">
        <time>1970-01-01T00:00:00+00:00</time>
        <ele>131.0</ele>
      </trkpt>
      <trkpt lat="45.556667" lon="9.532321">
        <time>1970-01-01T00:00:00+00:00</time>
        <ele>132.0</ele>
      </trkpt>
      <trkpt lat="45.557793" lon="9.532309">
        <time>1970-01-01T00:00:00+00:00</time>
        <ele>131.0</ele>
      </trkpt>
      <trkpt lat="45.557902" lon="9.5323">
        <time>1970-01-01T00:00:00+00:00</time>
        <ele>132.0</ele>
      </trkpt>
      <trkpt lat="45.557958" lon="9.532259">
        <time>1970-01-01T00:00:00+00:00</time>
        <ele>132.0</ele>
      </trkpt>
      <trkpt lat="45.558289" lon="9.531553">
        <time>1970-01-01T00:00:00+00:00</time>
        <ele>130.0</ele>
      </trkpt>
      <trkpt lat="45.558507" lon="9.531365">
        <time>1970-01-01T00:00:00+00:00</time>
        <ele>131.0</ele>
      </trkpt>
      <trkpt lat="45.558824" lon="9.531358">
        <time>1970-01-01T00:00:00+00:00</time>
        <ele>131.0</ele>
      </trkpt>
      <trkpt lat="45.559187" lon="9.531242">
        <time>1970-01-01T00:00:00+00:00</time>
        <ele>131.0</ele>
      </trkpt>
      <trkpt lat="45.559464" lon="9.530975">
        <time>1970-01-01T00:00:00+00:00</time>
        <ele>132.0</ele>
      </trkpt>
      <trkpt lat="45.559606" lon="9.530766">
        <time>1970-01-01T00:00:00+00:00</time>
        <ele>132.0</ele>
      </trkpt>
      <trkpt lat="45.559761" lon="9.53059">
        <time>1970-01-01T00:00:00+00:00</time>
        <ele>132.0</ele>
      </trkpt>
      <trkpt lat="45.560052" lon="9.530425">
        <time>1970-01-01T00:00:00+00:00</time>
        <ele>132.0</ele>
      </trkpt>
      <trkpt lat="45.560876" lon="9.529894">
        <time>1970-01-01T00:00:00+00:00</time>
        <ele>129.0</ele>
      </trkpt>
      <trkpt lat="45.560986" lon="9.529864">
        <time>1970-01-01T00:00:00+00:00</time>
        <ele>129.0</ele>
      </trkpt>
      <trkpt lat="45.561059" lon="9.529853">
        <time>1970-01-01T00:00:00+00:00</time>
        <ele>129.0</ele>
      </trkpt>
      <trkpt lat="45.563343" lon="9.530093">
        <time>1970-01-01T00:00:00+00:00</time>
        <ele>129.0</ele>
      </trkpt>
      <trkpt lat="45.563414" lon="9.530127">
        <time>1970-01-01T00:00:00+00:00</time>
        <ele>130.0</ele>
      </trkpt>
      <trkpt lat="45.564002" lon="9.530583">
        <time>1970-01-01T00:00:00+00:00</time>
        <ele>129.0</ele>
      </trkpt>
      <trkpt lat="45.564397" lon="9.530857">
        <time>1970-01-01T00:00:00+00:00</time>
        <ele>129.0</ele>
      </trkpt>
      <trkpt lat="45.565036" lon="9.531813">
        <time>1970-01-01T00:00:00+00:00</time>
        <ele>133.0</ele>
      </trkpt>
      <trkpt lat="45.565375" lon="9.532257">
        <time>1970-01-01T00:00:00+00:00</time>
        <ele>132.0</ele>
      </trkpt>
      <trkpt lat="45.565466" lon="9.532333">
        <time>1970-01-01T00:00:00+00:00</time>
        <ele>131.0</ele>
      </trkpt>
      <trkpt lat="45.566436" lon="9.532834">
        <time>1970-01-01T00:00:00+00:00</time>
        <ele>134.0</ele>
      </trkpt>
      <trkpt lat="45.567202" lon="9.533187">
        <time>1970-01-01T00:00:00+00:00</time>
        <ele>131.0</ele>
      </trkpt>
      <trkpt lat="45.567314" lon="9.533284">
        <time>1970-01-01T00:00:00+00:00</time>
        <ele>131.0</ele>
      </trkpt>
      <trkpt lat="45.567792" lon="9.533788">
        <time>1970-01-01T00:00:00+00:00</time>
        <ele>131.0</ele>
      </trkpt>
      <trkpt lat="45.56806" lon="9.534026">
        <time>1970-01-01T00:00:00+00:00</time>
        <ele>130.0</ele>
      </trkpt>
      <trkpt lat="45.568637" lon="9.53449">
        <time>1970-01-01T00:00:00+00:00</time>
        <ele>130.0</ele>
      </trkpt>
      <trkpt lat="45.568838" lon="9.534707">
        <time>1970-01-01T00:00:00+00:00</time>
        <ele>132.0</ele>
      </trkpt>
      <trkpt lat="45.569002" lon="9.534735">
        <time>1970-01-01T00:00:00+00:00</time>
        <ele>132.0</ele>
      </trkpt>
      <trkpt lat="45.56959" lon="9.535003">
        <time>1970-01-01T00:00:00+00:00</time>
        <ele>133.0</ele>
      </trkpt>
      <trkpt lat="45.570038" lon="9.535162">
        <time>1970-01-01T00:00:00+00:00</time>
        <ele>131.0</ele>
      </trkpt>
      <trkpt lat="45.570194" lon="9.535193">
        <time>1970-01-01T00:00:00+00:00</time>
        <ele>131.0</ele>
      </trkpt>
      <trkpt lat="45.571441" lon="9.535536">
        <time>1970-01-01T00:00:00+00:00</time>
        <ele>131.0</ele>
      </trkpt>
      <trkpt lat="45.571738" lon="9.535574">
        <time>1970-01-01T00:00:00+00:00</time>
        <ele>131.0</ele>
      </trkpt>
      <trkpt lat="45.572149" lon="9.535559">
        <time>1970-01-01T00:00:00+00:00</time>
        <ele>133.0</ele>
      </trkpt>
      <trkpt lat="45.572587" lon="9.535572">
        <time>1970-01-01T00:00:00+00:00</time>
        <ele>135.0</ele>
      </trkpt>
      <trkpt lat="45.572748" lon="9.535607">
        <time>1970-01-01T00:00:00+00:00</time>
        <ele>135.0</ele>
      </trkpt>
      <trkpt lat="45.573357" lon="9.535431">
        <time>1970-01-01T00:00:00+00:00</time>
        <ele>134.0</ele>
      </trkpt>
      <trkpt lat="45.574013" lon="9.53537">
        <time>1970-01-01T00:00:00+00:00</time>
        <ele>132.0</ele>
      </trkpt>
      <trkpt lat="45.57452" lon="9.535372">
        <time>1970-01-01T00:00:00+00:00</time>
        <ele>133.0</ele>
      </trkpt>
      <trkpt lat="45.574679" lon="9.535353">
        <time>1970-01-01T00:00:00+00:00</time>
        <ele>132.0</ele>
      </trkpt>
      <trkpt lat="45.575096" lon="9.535236">
        <time>1970-01-01T00:00:00+00:00</time>
        <ele>132.0</ele>
      </trkpt>
      <trkpt lat="45.575541" lon="9.535091">
        <time>1970-01-01T00:00:00+00:00</time>
        <ele>133.0</ele>
      </trkpt>
      <trkpt lat="45.576025" lon="9.535089">
        <time>1970-01-01T00:00:00+00:00</time>
        <ele>132.0</ele>
      </trkpt>
      <trkpt lat="45.576617" lon="9.535233">
        <time>1970-01-01T00:00:00+00:00</time>
        <ele>135.0</ele>
      </trkpt>
      <trkpt lat="45.576686" lon="9.535326">
        <time>1970-01-01T00:00:00+00:00</time>
        <ele>136.0</ele>
      </trkpt>
      <trkpt lat="45.576808" lon="9.535392">
        <time>1970-01-01T00:00:00+00:00</time>
        <ele>136.0</ele>
      </trkpt>
      <trkpt lat="45.577196" lon="9.535509">
        <time>1970-01-01T00:00:00+00:00</time>
        <ele>136.0</ele>
      </trkpt>
      <trkpt lat="45.57722" lon="9.535545">
        <time>1970-01-01T00:00:00+00:00</time>
        <ele>136.0</ele>
      </trkpt>
      <trkpt lat="45.577103" lon="9.53571">
        <time>1970-01-01T00:00:00+00:00</time>
        <ele>138.0</ele>
      </trkpt>
      <trkpt lat="45.577048" lon="9.535707">
        <time>1970-01-01T00:00:00+00:00</time>
        <ele>138.0</ele>
      </trkpt>
      <trkpt lat="45.577054" lon="9.535622">
        <time>1970-01-01T00:00:00+00:00</time>
        <ele>137.0</ele>
      </trkpt>
      <trkpt lat="45.577162" lon="9.534482">
        <time>1970-01-01T00:00:00+00:00</time>
        <ele>128.0</ele>
      </trkpt>
      <trkpt lat="45.577214" lon="9.53443">
        <time>1970-01-01T00:00:00+00:00</time>
        <ele>128.0</ele>
      </trkpt>
      <trkpt lat="45.577098" lon="9.534322">
        <time>1970-01-01T00:00:00+00:00</time>
        <ele>128.0</ele>
      </trkpt>
      <trkpt lat="45.576779" lon="9.534084">
        <time>1970-01-01T00:00:00+00:00</time>
        <ele>129.0</ele>
      </trkpt>
      <trkpt lat="45.575958" lon="9.533785">
        <time>1970-01-01T00:00:00+00:00</time>
        <ele>135.0</ele>
      </trkpt>
      <trkpt lat="45.575743" lon="9.533804">
        <time>1970-01-01T00:00:00+00:00</time>
        <ele>135.0</ele>
      </trkpt>
      <trkpt lat="45.575449" lon="9.533959">
        <time>1970-01-01T00:00:00+00:00</time>
        <ele>131.0</ele>
      </trkpt>
      <trkpt lat="45.575361" lon="9.533988">
        <time>1970-01-01T00:00:00+00:00</time>
        <ele>131.0</ele>
      </trkpt>
      <trkpt lat="45.57526" lon="9.533993">
        <time>1970-01-01T00:00:00+00:00</time>
        <ele>131.0</ele>
      </trkpt>
      <trkpt lat="45.575017" lon="9.533927">
        <time>1970-01-01T00:00:00+00:00</time>
        <ele>132.0</ele>
      </trkpt>
      <trkpt lat="45.57463" lon="9.534007">
        <time>1970-01-01T00:00:00+00:00</time>
        <ele>131.0</ele>
      </trkpt>
      <trkpt lat="45.574349" lon="9.533984">
        <time>1970-01-01T00:00:00+00:00</time>
        <ele>131.0</ele>
      </trkpt>
      <trkpt lat="45.574011" lon="9.533901">
        <time>1970-01-01T00:00:00+00:00</time>
        <ele>131.0</ele>
      </trkpt>
      <trkpt lat="45.5737" lon="9.533865">
        <time>1970-01-01T00:00:00+00:00</time>
        <ele>131.0</ele>
      </trkpt>
      <trkpt lat="45.573637" lon="9.533842">
        <time>1970-01-01T00:00:00+00:00</time>
        <ele>131.0</ele>
      </trkpt>
      <trkpt lat="45.573547" lon="9.53375">
        <time>1970-01-01T00:00:00+00:00</time>
        <ele>133.0</ele>
      </trkpt>
      <trkpt lat="45.573516" lon="9.533677">
        <time>1970-01-01T00:00:00+00:00</time>
        <ele>134.0</ele>
      </trkpt>
      <trkpt lat="45.573498" lon="9.533571">
        <time>1970-01-01T00:00:00+00:00</time>
        <ele>136.0</ele>
      </trkpt>
      <trkpt lat="45.5735" lon="9.533477">
        <time>1970-01-01T00:00:00+00:00</time>
        <ele>137.0</ele>
      </trkpt>
      <trkpt lat="45.5734" lon="9.533484">
        <time>1970-01-01T00:00:00+00:00</time>
        <ele>137.0</ele>
      </trkpt>
      <trkpt lat="45.57324" lon="9.53386">
        <time>1970-01-01T00:00:00+00:00</time>
        <ele>130.0</ele>
      </trkpt>
      <trkpt lat="45.573204" lon="9.533889">
        <time>1970-01-01T00:00:00+00:00</time>
        <ele>130.0</ele>
      </trkpt>
      <trkpt lat="45.572373" lon="9.533243">
        <time>1970-01-01T00:00:00+00:00</time>
        <ele>136.0</ele>
      </trkpt>
      <trkpt lat="45.571586" lon="9.532568">
        <time>1970-01-01T00:00:00+00:00</time>
        <ele>135.0</ele>
      </trkpt>
      <trkpt lat="45.571082" lon="9.532175">
        <time>1970-01-01T00:00:00+00:00</time>
        <ele>134.0</ele>
      </trkpt>
      <trkpt lat="45.570782" lon="9.531904">
        <time>1970-01-01T00:00:00+00:00</time>
        <ele>133.0</ele>
      </trkpt>
      <trkpt lat="45.570579" lon="9.531785">
        <time>1970-01-01T00:00:00+00:00</time>
        <ele>132.0</ele>
      </trkpt>
      <trkpt lat="45.570388" lon="9.531696">
        <time>1970-01-01T00:00:00+00:00</time>
        <ele>132.0</ele>
      </trkpt>
      <trkpt lat="45.569981" lon="9.531363">
        <time>1970-01-01T00:00:00+00:00</time>
        <ele>130.0</ele>
      </trkpt>
      <trkpt lat="45.569604" lon="9.531136">
        <time>1970-01-01T00:00:00+00:00</time>
        <ele>130.0</ele>
      </trkpt>
      <trkpt lat="45.569469" lon="9.531115">
        <time>1970-01-01T00:00:00+00:00</time>
        <ele>130.0</ele>
      </trkpt>
      <trkpt lat="45.569253" lon="9.531106">
        <time>1970-01-01T00:00:00+00:00</time>
        <ele>130.0</ele>
      </trkpt>
      <trkpt lat="45.569137" lon="9.531127">
        <time>1970-01-01T00:00:00+00:00</time>
        <ele>130.0</ele>
      </trkpt>
      <trkpt lat="45.56891" lon="9.531294">
        <time>1970-01-01T00:00:00+00:00</time>
        <ele>130.0</ele>
      </trkpt>
      <trkpt lat="45.568859" lon="9.531311">
        <time>1970-01-01T00:00:00+00:00</time>
        <ele>130.0</ele>
      </trkpt>
      <trkpt lat="45.568754" lon="9.531298">
        <time>1970-01-01T00:00:00+00:00</time>
        <ele>130.0</ele>
      </trkpt>
      <trkpt lat="45.568674" lon="9.531222">
        <time>1970-01-01T00:00:00+00:00</time>
        <ele>130.0</ele>
      </trkpt>
      <trkpt lat="45.568566" lon="9.531066">
        <time>1970-01-01T00:00:00+00:00</time>
        <ele>130.0</ele>
      </trkpt>
      <trkpt lat="45.567317" lon="9.529409">
        <time>1970-01-01T00:00:00+00:00</time>
        <ele>129.0</ele>
      </trkpt>
      <trkpt lat="45.566831" lon="9.5287">
        <time>1970-01-01T00:00:00+00:00</time>
        <ele>129.0</ele>
      </trkpt>
      <trkpt lat="45.566637" lon="9.528486">
        <time>1970-01-01T00:00:00+00:00</time>
        <ele>130.0</ele>
      </trkpt>
      <trkpt lat="45.56606" lon="9.527774">
        <time>1970-01-01T00:00:00+00:00</time>
        <ele>131.0</ele>
      </trkpt>
      <trkpt lat="45.565816" lon="9.527428">
        <time>1970-01-01T00:00:00+00:00</time>
        <ele>131.0</ele>
      </trkpt>
      <trkpt lat="45.565689" lon="9.527145">
        <time>1970-01-01T00:00:00+00:00</time>
        <ele>131.0</ele>
      </trkpt>
      <trkpt lat="45.565571" lon="9.526809">
        <time>1970-01-01T00:00:00+00:00</time>
        <ele>133.0</ele>
      </trkpt>
      <trkpt lat="45.565453" lon="9.526545">
        <time>1970-01-01T00:00:00+00:00</time>
        <ele>133.0</ele>
      </trkpt>
      <trkpt lat="45.565144" lon="9.526043">
        <time>1970-01-01T00:00:00+00:00</time>
        <ele>133.0</ele>
      </trkpt>
      <trkpt lat="45.56494" lon="9.525799">
        <time>1970-01-01T00:00:00+00:00</time>
        <ele>133.0</ele>
      </trkpt>
      <trkpt lat="45.564405" lon="9.525239">
        <time>1970-01-01T00:00:00+00:00</time>
        <ele>134.0</ele>
      </trkpt>
      <trkpt lat="45.564201" lon="9.52511">
        <time>1970-01-01T00:00:00+00:00</time>
        <ele>133.0</ele>
      </trkpt>
      <trkpt lat="45.563816" lon="9.524918">
        <time>1970-01-01T00:00:00+00:00</time>
        <ele>133.0</ele>
      </trkpt>
      <trkpt lat="45.563519" lon="9.524876">
        <time>1970-01-01T00:00:00+00:00</time>
        <ele>134.0</ele>
      </trkpt>
      <trkpt lat="45.563423" lon="9.524926">
        <time>1970-01-01T00:00:00+00:00</time>
        <ele>134.0</ele>
      </trkpt>
      <trkpt lat="45.563374" lon="9.524983">
        <time>1970-01-01T00:00:00+00:00</time>
        <ele>133.0</ele>
      </trkpt>
      <trkpt lat="45.563354" lon="9.524992">
        <time>1970-01-01T00:00:00+00:00</time>
        <ele>133.0</ele>
      </trkpt>
      <trkpt lat="45.563282" lon="9.524959">
        <time>1970-01-01T00:00:00+00:00</time>
        <ele>134.0</ele>
      </trkpt>
      <trkpt lat="45.563253" lon="9.524948">
        <time>1970-01-01T00:00:00+00:00</time>
        <ele>134.0</ele>
      </trkpt>
      <trkpt lat="45.563352" lon="9.524801">
        <time>1970-01-01T00:00:00+00:00</time>
        <ele>135.0</ele>
      </trkpt>
      <trkpt lat="45.563563" lon="9.52445">
        <time>1970-01-01T00:00:00+00:00</time>
        <ele>137.0</ele>
      </trkpt>
      <trkpt lat="45.563667" lon="9.524366">
        <time>1970-01-01T00:00:00+00:00</time>
        <ele>137.0</ele>
      </trkpt>
      <trkpt lat="45.563928" lon="9.524306">
        <time>1970-01-01T00:00:00+00:00</time>
        <ele>138.0</ele>
      </trkpt>
      <trkpt lat="45.563957" lon="9.524267">
        <time>1970-01-01T00:00:00+00:00</time>
        <ele>138.0</ele>
      </trkpt>
      <trkpt lat="45.563998" lon="9.524137">
        <time>1970-01-01T00:00:00+00:00</time>
        <ele>139.0</ele>
      </trkpt>
      <trkpt lat="45.563794" lon="9.524113">
        <time>1970-01-01T00:00:00+00:00</time>
        <ele>139.0</ele>
      </trkpt>
      <trkpt lat="45.563719" lon="9.524076">
        <time>1970-01-01T00:00:00+00:00</time>
        <ele>139.0</ele>
      </trkpt>
      <trkpt lat="45.563626" lon="9.523989">
        <time>1970-01-01T00:00:00+00:00</time>
        <ele>141.0</ele>
      </trkpt>
      <trkpt lat="45.563359" lon="9.523649">
        <time>1970-01-01T00:00:00+00:00</time>
        <ele>141.0</ele>
      </trkpt>
      <trkpt lat="45.562463" lon="9.522493">
        <time>1970-01-01T00:00:00+00:00</time>
        <ele>138.0</ele>
      </trkpt>
      <trkpt lat="45.562249" lon="9.522245">
        <time>1970-01-01T00:00:00+00:00</time>
        <ele>136.0</ele>
      </trkpt>
      <trkpt lat="45.562008" lon="9.522008">
        <time>1970-01-01T00:00:00+00:00</time>
        <ele>138.0</ele>
      </trkpt>
      <trkpt lat="45.5614" lon="9.521572">
        <time>1970-01-01T00:00:00+00:00</time>
        <ele>129.0</ele>
      </trkpt>
      <trkpt lat="45.560931" lon="9.521169">
        <time>1970-01-01T00:00:00+00:00</time>
        <ele>136.0</ele>
      </trkpt>
      <trkpt lat="45.560847" lon="9.521452">
        <time>1970-01-01T00:00:00+00:00</time>
        <ele>130.0</ele>
      </trkpt>
      <trkpt lat="45.560847" lon="9.521452">
        <time>1970-01-01T00:00:00+00:00</time>
        <ele>130.0</ele>
      </trkpt>
      <trkpt lat="45.560931" lon="9.521169">
        <time>1970-01-01T00:00:00+00:00</time>
        <ele>136.0</ele>
      </trkpt>
      <trkpt lat="45.5614" lon="9.521572">
        <time>1970-01-01T00:00:00+00:00</time>
        <ele>129.0</ele>
      </trkpt>
      <trkpt lat="45.562008" lon="9.522008">
        <time>1970-01-01T00:00:00+00:00</time>
        <ele>138.0</ele>
      </trkpt>
      <trkpt lat="45.562249" lon="9.522245">
        <time>1970-01-01T00:00:00+00:00</time>
        <ele>136.0</ele>
      </trkpt>
      <trkpt lat="45.562463" lon="9.522493">
        <time>1970-01-01T00:00:00+00:00</time>
        <ele>138.0</ele>
      </trkpt>
      <trkpt lat="45.563359" lon="9.523649">
        <time>1970-01-01T00:00:00+00:00</time>
        <ele>141.0</ele>
      </trkpt>
      <trkpt lat="45.563626" lon="9.523989">
        <time>1970-01-01T00:00:00+00:00</time>
        <ele>141.0</ele>
      </trkpt>
      <trkpt lat="45.563719" lon="9.524076">
        <time>1970-01-01T00:00:00+00:00</time>
        <ele>139.0</ele>
      </trkpt>
      <trkpt lat="45.563794" lon="9.524113">
        <time>1970-01-01T00:00:00+00:00</time>
        <ele>139.0</ele>
      </trkpt>
      <trkpt lat="45.563998" lon="9.524137">
        <time>1970-01-01T00:00:00+00:00</time>
        <ele>139.0</ele>
      </trkpt>
      <trkpt lat="45.563957" lon="9.524267">
        <time>1970-01-01T00:00:00+00:00</time>
        <ele>138.0</ele>
      </trkpt>
      <trkpt lat="45.563928" lon="9.524306">
        <time>1970-01-01T00:00:00+00:00</time>
        <ele>138.0</ele>
      </trkpt>
      <trkpt lat="45.563667" lon="9.524366">
        <time>1970-01-01T00:00:00+00:00</time>
        <ele>137.0</ele>
      </trkpt>
      <trkpt lat="45.563563" lon="9.52445">
        <time>1970-01-01T00:00:00+00:00</time>
        <ele>137.0</ele>
      </trkpt>
      <trkpt lat="45.563352" lon="9.524801">
        <time>1970-01-01T00:00:00+00:00</time>
        <ele>135.0</ele>
      </trkpt>
      <trkpt lat="45.563253" lon="9.524948">
        <time>1970-01-01T00:00:00+00:00</time>
        <ele>134.0</ele>
      </trkpt>
      <trkpt lat="45.563282" lon="9.524959">
        <time>1970-01-01T00:00:00+00:00</time>
        <ele>134.0</ele>
      </trkpt>
      <trkpt lat="45.563354" lon="9.524992">
        <time>1970-01-01T00:00:00+00:00</time>
        <ele>133.0</ele>
      </trkpt>
      <trkpt lat="45.563374" lon="9.524983">
        <time>1970-01-01T00:00:00+00:00</time>
        <ele>133.0</ele>
      </trkpt>
      <trkpt lat="45.563423" lon="9.524926">
        <time>1970-01-01T00:00:00+00:00</time>
        <ele>134.0</ele>
      </trkpt>
      <trkpt lat="45.563519" lon="9.524876">
        <time>1970-01-01T00:00:00+00:00</time>
        <ele>134.0</ele>
      </trkpt>
      <trkpt lat="45.563816" lon="9.524918">
        <time>1970-01-01T00:00:00+00:00</time>
        <ele>133.0</ele>
      </trkpt>
      <trkpt lat="45.564201" lon="9.52511">
        <time>1970-01-01T00:00:00+00:00</time>
        <ele>133.0</ele>
      </trkpt>
      <trkpt lat="45.564405" lon="9.525239">
        <time>1970-01-01T00:00:00+00:00</time>
        <ele>134.0</ele>
      </trkpt>
      <trkpt lat="45.56494" lon="9.525799">
        <time>1970-01-01T00:00:00+00:00</time>
        <ele>133.0</ele>
      </trkpt>
      <trkpt lat="45.565144" lon="9.526043">
        <time>1970-01-01T00:00:00+00:00</time>
        <ele>133.0</ele>
      </trkpt>
      <trkpt lat="45.565453" lon="9.526545">
        <time>1970-01-01T00:00:00+00:00</time>
        <ele>133.0</ele>
      </trkpt>
      <trkpt lat="45.565571" lon="9.526809">
        <time>1970-01-01T00:00:00+00:00</time>
        <ele>133.0</ele>
      </trkpt>
      <trkpt lat="45.565689" lon="9.527145">
        <time>1970-01-01T00:00:00+00:00</time>
        <ele>131.0</ele>
      </trkpt>
      <trkpt lat="45.565816" lon="9.527428">
        <time>1970-01-01T00:00:00+00:00</time>
        <ele>131.0</ele>
      </trkpt>
      <trkpt lat="45.56606" lon="9.527774">
        <time>1970-01-01T00:00:00+00:00</time>
        <ele>131.0</ele>
      </trkpt>
      <trkpt lat="45.566637" lon="9.528486">
        <time>1970-01-01T00:00:00+00:00</time>
        <ele>130.0</ele>
      </trkpt>
      <trkpt lat="45.566831" lon="9.5287">
        <time>1970-01-01T00:00:00+00:00</time>
        <ele>129.0</ele>
      </trkpt>
      <trkpt lat="45.567317" lon="9.529409">
        <time>1970-01-01T00:00:00+00:00</time>
        <ele>129.0</ele>
      </trkpt>
      <trkpt lat="45.568566" lon="9.531066">
        <time>1970-01-01T00:00:00+00:00</time>
        <ele>130.0</ele>
      </trkpt>
      <trkpt lat="45.568674" lon="9.531222">
        <time>1970-01-01T00:00:00+00:00</time>
        <ele>130.0</ele>
      </trkpt>
      <trkpt lat="45.568754" lon="9.531298">
        <time>1970-01-01T00:00:00+00:00</time>
        <ele>130.0</ele>
      </trkpt>
      <trkpt lat="45.568859" lon="9.531311">
        <time>1970-01-01T00:00:00+00:00</time>
        <ele>130.0</ele>
      </trkpt>
      <trkpt lat="45.56891" lon="9.531294">
        <time>1970-01-01T00:00:00+00:00</time>
        <ele>130.0</ele>
      </trkpt>
      <trkpt lat="45.569137" lon="9.531127">
        <time>1970-01-01T00:00:00+00:00</time>
        <ele>130.0</ele>
      </trkpt>
      <trkpt lat="45.569253" lon="9.531106">
        <time>1970-01-01T00:00:00+00:00</time>
        <ele>130.0</ele>
      </trkpt>
      <trkpt lat="45.569469" lon="9.531115">
        <time>1970-01-01T00:00:00+00:00</time>
        <ele>130.0</ele>
      </trkpt>
      <trkpt lat="45.569604" lon="9.531136">
        <time>1970-01-01T00:00:00+00:00</time>
        <ele>130.0</ele>
      </trkpt>
      <trkpt lat="45.569981" lon="9.531363">
        <time>1970-01-01T00:00:00+00:00</time>
        <ele>130.0</ele>
      </trkpt>
      <trkpt lat="45.570388" lon="9.531696">
        <time>1970-01-01T00:00:00+00:00</time>
        <ele>132.0</ele>
      </trkpt>
      <trkpt lat="45.570579" lon="9.531785">
        <time>1970-01-01T00:00:00+00:00</time>
        <ele>132.0</ele>
      </trkpt>
      <trkpt lat="45.570782" lon="9.531904">
        <time>1970-01-01T00:00:00+00:00</time>
        <ele>133.0</ele>
      </trkpt>
      <trkpt lat="45.571082" lon="9.532175">
        <time>1970-01-01T00:00:00+00:00</time>
        <ele>134.0</ele>
      </trkpt>
      <trkpt lat="45.571586" lon="9.532568">
        <time>1970-01-01T00:00:00+00:00</time>
        <ele>135.0</ele>
      </trkpt>
      <trkpt lat="45.572373" lon="9.533243">
        <time>1970-01-01T00:00:00+00:00</time>
        <ele>136.0</ele>
      </trkpt>
      <trkpt lat="45.573204" lon="9.533889">
        <time>1970-01-01T00:00:00+00:00</time>
        <ele>130.0</ele>
      </trkpt>
      <trkpt lat="45.57324" lon="9.53386">
        <time>1970-01-01T00:00:00+00:00</time>
        <ele>130.0</ele>
      </trkpt>
      <trkpt lat="45.5734" lon="9.533484">
        <time>1970-01-01T00:00:00+00:00</time>
        <ele>137.0</ele>
      </trkpt>
      <trkpt lat="45.5735" lon="9.533477">
        <time>1970-01-01T00:00:00+00:00</time>
        <ele>137.0</ele>
      </trkpt>
      <trkpt lat="45.573498" lon="9.533571">
        <time>1970-01-01T00:00:00+00:00</time>
        <ele>136.0</ele>
      </trkpt>
      <trkpt lat="45.573516" lon="9.533677">
        <time>1970-01-01T00:00:00+00:00</time>
        <ele>134.0</ele>
      </trkpt>
      <trkpt lat="45.573547" lon="9.53375">
        <time>1970-01-01T00:00:00+00:00</time>
        <ele>133.0</ele>
      </trkpt>
      <trkpt lat="45.573637" lon="9.533842">
        <time>1970-01-01T00:00:00+00:00</time>
        <ele>131.0</ele>
      </trkpt>
      <trkpt lat="45.5737" lon="9.533865">
        <time>1970-01-01T00:00:00+00:00</time>
        <ele>131.0</ele>
      </trkpt>
      <trkpt lat="45.574011" lon="9.533901">
        <time>1970-01-01T00:00:00+00:00</time>
        <ele>131.0</ele>
      </trkpt>
      <trkpt lat="45.574349" lon="9.533984">
        <time>1970-01-01T00:00:00+00:00</time>
        <ele>131.0</ele>
      </trkpt>
      <trkpt lat="45.57463" lon="9.534007">
        <time>1970-01-01T00:00:00+00:00</time>
        <ele>131.0</ele>
      </trkpt>
      <trkpt lat="45.575017" lon="9.533927">
        <time>1970-01-01T00:00:00+00:00</time>
        <ele>132.0</ele>
      </trkpt>
      <trkpt lat="45.57526" lon="9.533993">
        <time>1970-01-01T00:00:00+00:00</time>
        <ele>131.0</ele>
      </trkpt>
      <trkpt lat="45.575361" lon="9.533988">
        <time>1970-01-01T00:00:00+00:00</time>
        <ele>131.0</ele>
      </trkpt>
      <trkpt lat="45.575449" lon="9.533959">
        <time>1970-01-01T00:00:00+00:00</time>
        <ele>131.0</ele>
      </trkpt>
      <trkpt lat="45.575743" lon="9.533804">
        <time>1970-01-01T00:00:00+00:00</time>
        <ele>135.0</ele>
      </trkpt>
      <trkpt lat="45.575958" lon="9.533785">
        <time>1970-01-01T00:00:00+00:00</time>
        <ele>135.0</ele>
      </trkpt>
      <trkpt lat="45.576779" lon="9.534084">
        <time>1970-01-01T00:00:00+00:00</time>
        <ele>129.0</ele>
      </trkpt>
      <trkpt lat="45.577098" lon="9.534322">
        <time>1970-01-01T00:00:00+00:00</time>
        <ele>128.0</ele>
      </trkpt>
      <trkpt lat="45.577214" lon="9.53443">
        <time>1970-01-01T00:00:00+00:00</time>
        <ele>128.0</ele>
      </trkpt>
      <trkpt lat="45.577162" lon="9.534482">
        <time>1970-01-01T00:00:00+00:00</time>
        <ele>128.0</ele>
      </trkpt>
      <trkpt lat="45.577054" lon="9.535622">
        <time>1970-01-01T00:00:00+00:00</time>
        <ele>137.0</ele>
      </trkpt>
      <trkpt lat="45.577048" lon="9.535707">
        <time>1970-01-01T00:00:00+00:00</time>
        <ele>138.0</ele>
      </trkpt>
      <trkpt lat="45.577103" lon="9.53571">
        <time>1970-01-01T00:00:00+00:00</time>
        <ele>138.0</ele>
      </trkpt>
      <trkpt lat="45.57722" lon="9.535545">
        <time>1970-01-01T00:00:00+00:00</time>
        <ele>136.0</ele>
      </trkpt>
      <trkpt lat="45.577196" lon="9.535509">
        <time>1970-01-01T00:00:00+00:00</time>
        <ele>136.0</ele>
      </trkpt>
      <trkpt lat="45.576808" lon="9.535392">
        <time>1970-01-01T00:00:00+00:00</time>
        <ele>136.0</ele>
      </trkpt>
      <trkpt lat="45.576686" lon="9.535326">
        <time>1970-01-01T00:00:00+00:00</time>
        <ele>136.0</ele>
      </trkpt>
      <trkpt lat="45.576617" lon="9.535233">
        <time>1970-01-01T00:00:00+00:00</time>
        <ele>135.0</ele>
      </trkpt>
      <trkpt lat="45.576025" lon="9.535089">
        <time>1970-01-01T00:00:00+00:00</time>
        <ele>132.0</ele>
      </trkpt>
      <trkpt lat="45.575541" lon="9.535091">
        <time>1970-01-01T00:00:00+00:00</time>
        <ele>133.0</ele>
      </trkpt>
      <trkpt lat="45.575096" lon="9.535236">
        <time>1970-01-01T00:00:00+00:00</time>
        <ele>132.0</ele>
      </trkpt>
      <trkpt lat="45.574679" lon="9.535353">
        <time>1970-01-01T00:00:00+00:00</time>
        <ele>132.0</ele>
      </trkpt>
      <trkpt lat="45.57452" lon="9.535372">
        <time>1970-01-01T00:00:00+00:00</time>
        <ele>133.0</ele>
      </trkpt>
      <trkpt lat="45.574013" lon="9.53537">
        <time>1970-01-01T00:00:00+00:00</time>
        <ele>132.0</ele>
      </trkpt>
      <trkpt lat="45.573357" lon="9.535431">
        <time>1970-01-01T00:00:00+00:00</time>
        <ele>134.0</ele>
      </trkpt>
      <trkpt lat="45.572748" lon="9.535607">
        <time>1970-01-01T00:00:00+00:00</time>
        <ele>135.0</ele>
      </trkpt>
      <trkpt lat="45.572587" lon="9.535572">
        <time>1970-01-01T00:00:00+00:00</time>
        <ele>135.0</ele>
      </trkpt>
      <trkpt lat="45.572149" lon="9.535559">
        <time>1970-01-01T00:00:00+00:00</time>
        <ele>133.0</ele>
      </trkpt>
      <trkpt lat="45.571738" lon="9.535574">
        <time>1970-01-01T00:00:00+00:00</time>
        <ele>131.0</ele>
      </trkpt>
      <trkpt lat="45.571441" lon="9.535536">
        <time>1970-01-01T00:00:00+00:00</time>
        <ele>131.0</ele>
      </trkpt>
      <trkpt lat="45.570194" lon="9.535193">
        <time>1970-01-01T00:00:00+00:00</time>
        <ele>131.0</ele>
      </trkpt>
      <trkpt lat="45.570038" lon="9.535162">
        <time>1970-01-01T00:00:00+00:00</time>
        <ele>131.0</ele>
      </trkpt>
      <trkpt lat="45.56959" lon="9.535003">
        <time>1970-01-01T00:00:00+00:00</time>
        <ele>133.0</ele>
      </trkpt>
      <trkpt lat="45.569002" lon="9.534735">
        <time>1970-01-01T00:00:00+00:00</time>
        <ele>132.0</ele>
      </trkpt>
      <trkpt lat="45.568838" lon="9.534707">
        <time>1970-01-01T00:00:00+00:00</time>
        <ele>132.0</ele>
      </trkpt>
      <trkpt lat="45.568637" lon="9.53449">
        <time>1970-01-01T00:00:00+00:00</time>
        <ele>130.0</ele>
      </trkpt>
      <trkpt lat="45.56806" lon="9.534026">
        <time>1970-01-01T00:00:00+00:00</time>
        <ele>130.0</ele>
      </trkpt>
      <trkpt lat="45.567792" lon="9.533788">
        <time>1970-01-01T00:00:00+00:00</time>
        <ele>131.0</ele>
      </trkpt>
      <trkpt lat="45.567314" lon="9.533284">
        <time>1970-01-01T00:00:00+00:00</time>
        <ele>131.0</ele>
      </trkpt>
      <trkpt lat="45.567202" lon="9.533187">
        <time>1970-01-01T00:00:00+00:00</time>
        <ele>131.0</ele>
      </trkpt>
      <trkpt lat="45.566436" lon="9.532834">
        <time>1970-01-01T00:00:00+00:00</time>
        <ele>134.0</ele>
      </trkpt>
      <trkpt lat="45.565466" lon="9.532333">
        <time>1970-01-01T00:00:00+00:00</time>
        <ele>131.0</ele>
      </trkpt>
      <trkpt lat="45.565375" lon="9.532257">
        <time>1970-01-01T00:00:00+00:00</time>
        <ele>132.0</ele>
      </trkpt>
      <trkpt lat="45.565036" lon="9.531813">
        <time>1970-01-01T00:00:00+00:00</time>
        <ele>133.0</ele>
      </trkpt>
      <trkpt lat="45.564397" lon="9.530857">
        <time>1970-01-01T00:00:00+00:00</time>
        <ele>129.0</ele>
      </trkpt>
      <trkpt lat="45.564002" lon="9.530583">
        <time>1970-01-01T00:00:00+00:00</time>
        <ele>129.0</ele>
      </trkpt>
      <trkpt lat="45.563414" lon="9.530127">
        <time>1970-01-01T00:00:00+00:00</time>
        <ele>130.0</ele>
      </trkpt>
      <trkpt lat="45.563343" lon="9.530093">
        <time>1970-01-01T00:00:00+00:00</time>
        <ele>129.0</ele>
      </trkpt>
      <trkpt lat="45.561059" lon="9.529853">
        <time>1970-01-01T00:00:00+00:00</time>
        <ele>129.0</ele>
      </trkpt>
      <trkpt lat="45.560986" lon="9.529864">
        <time>1970-01-01T00:00:00+00:00</time>
        <ele>129.0</ele>
      </trkpt>
      <trkpt lat="45.560876" lon="9.529894">
        <time>1970-01-01T00:00:00+00:00</time>
        <ele>129.0</ele>
      </trkpt>
      <trkpt lat="45.560052" lon="9.530425">
        <time>1970-01-01T00:00:00+00:00</time>
        <ele>132.0</ele>
      </trkpt>
      <trkpt lat="45.559761" lon="9.53059">
        <time>1970-01-01T00:00:00+00:00</time>
        <ele>132.0</ele>
      </trkpt>
      <trkpt lat="45.559606" lon="9.530766">
        <time>1970-01-01T00:00:00+00:00</time>
        <ele>132.0</ele>
      </trkpt>
      <trkpt lat="45.559464" lon="9.530975">
        <time>1970-01-01T00:00:00+00:00</time>
        <ele>132.0</ele>
      </trkpt>
      <trkpt lat="45.559187" lon="9.531242">
        <time>1970-01-01T00:00:00+00:00</time>
        <ele>131.0</ele>
      </trkpt>
      <trkpt lat="45.558824" lon="9.531358">
        <time>1970-01-01T00:00:00+00:00</time>
        <ele>131.0</ele>
      </trkpt>
      <trkpt lat="45.558507" lon="9.531365">
        <time>1970-01-01T00:00:00+00:00</time>
        <ele>131.0</ele>
      </trkpt>
      <trkpt lat="45.558289" lon="9.531553">
        <time>1970-01-01T00:00:00+00:00</time>
        <ele>130.0</ele>
      </trkpt>
      <trkpt lat="45.557958" lon="9.532259">
        <time>1970-01-01T00:00:00+00:00</time>
        <ele>132.0</ele>
      </trkpt>
      <trkpt lat="45.557902" lon="9.5323">
        <time>1970-01-01T00:00:00+00:00</time>
        <ele>132.0</ele>
      </trkpt>
      <trkpt lat="45.557793" lon="9.532309">
        <time>1970-01-01T00:00:00+00:00</time>
        <ele>131.0</ele>
      </trkpt>
      <trkpt lat="45.556667" lon="9.532321">
        <time>1970-01-01T00:00:00+00:00</time>
        <ele>132.0</ele>
      </trkpt>
      <trkpt lat="45.556176" lon="9.532341">
        <time>1970-01-01T00:00:00+00:00</time>
        <ele>131.0</ele>
      </trkpt>
      <trkpt lat="45.556144" lon="9.532323">
        <time>1970-01-01T00:00:00+00:00</time>
        <ele>131.0</ele>
      </trkpt>
      <trkpt lat="45.555961" lon="9.532216">
        <time>1970-01-01T00:00:00+00:00</time>
        <ele>134.0</ele>
      </trkpt>
      <trkpt lat="45.555914" lon="9.532195">
        <time>1970-01-01T00:00:00+00:00</time>
        <ele>135.0</ele>
      </trkpt>
      <trkpt lat="45.55534" lon="9.532206">
        <time>1970-01-01T00:00:00+00:00</time>
        <ele>136.0</ele>
      </trkpt>
      <trkpt lat="45.554251" lon="9.532218">
        <time>1970-01-01T00:00:00+00:00</time>
        <ele>132.0</ele>
      </trkpt>
      <trkpt lat="45.553561" lon="9.532255">
        <time>1970-01-01T00:00:00+00:00</time>
        <ele>133.0</ele>
      </trkpt>
      <trkpt lat="45.553554" lon="9.532083">
        <time>1970-01-01T00:00:00+00:00</time>
        <ele>133.0</ele>
      </trkpt>
      <trkpt lat="45.553513" lon="9.531911">
        <time>1970-01-01T00:00:00+00:00</time>
        <ele>132.0</ele>
      </trkpt>
      <trkpt lat="45.553401" lon="9.531663">
        <time>1970-01-01T00:00:00+00:00</time>
        <ele>132.0</ele>
      </trkpt>
      <trkpt lat="45.55305" lon="9.531391">
        <time>1970-01-01T00:00:00+00:00</time>
        <ele>132.0</ele>
      </trkpt>
      <trkpt lat="45.552753" lon="9.530845">
        <time>1970-01-01T00:00:00+00:00</time>
        <ele>131.0</ele>
      </trkpt>
      <trkpt lat="45.552707" lon="9.530749">
        <time>1970-01-01T00:00:00+00:00</time>
        <ele>131.0</ele>
      </trkpt>
      <trkpt lat="45.55281" lon="9.530153">
        <time>1970-01-01T00:00:00+00:00</time>
        <ele>131.0</ele>
      </trkpt>
      <trkpt lat="45.552798" lon="9.53011">
        <time>1970-01-01T00:00:00+00:00</time>
        <ele>131.0</ele>
      </trkpt>
      <trkpt lat="45.552683" lon="9.530049">
        <time>1970-01-01T00:00:00+00:00</time>
        <ele>132.0</ele>
      </trkpt>
      <trkpt lat="45.552204" lon="9.529925">
        <time>1970-01-01T00:00:00+00:00</time>
        <ele>128.0</ele>
      </trkpt>
      <trkpt lat="45.552037" lon="9.529887">
        <time>1970-01-01T00:00:00+00:00</time>
        <ele>127.0</ele>
      </trkpt>
      <trkpt lat="45.55191" lon="9.529819">
        <time>1970-01-01T00:00:00+00:00</time>
        <ele>127.0</ele>
      </trkpt>
      <trkpt lat="45.551694" lon="9.529629">
        <time>1970-01-01T00:00:00+00:00</time>
        <ele>126.0</ele>
      </trkpt>
      <trkpt lat="45.551462" lon="9.529346">
        <time>1970-01-01T00:00:00+00:00</time>
        <ele>124.0</ele>
      </trkpt>
      <trkpt lat="45.550654" lon="9.528046">
        <time>1970-01-01T00:00:00+00:00</time>
        <ele>125.0</ele>
      </trkpt>
      <trkpt lat="45.550583" lon="9.52776">
        <time>1970-01-01T00:00:00+00:00</time>
        <ele>123.0</ele>
      </trkpt>
      <trkpt lat="45.550383" lon="9.52737">
        <time>1970-01-01T00:00:00+00:00</time>
        <ele>122.0</ele>
      </trkpt>
      <trkpt lat="45.550247" lon="9.52725">
        <time>1970-01-01T00:00:00+00:00</time>
        <ele>123.0</ele>
      </trkpt>
      <trkpt lat="45.550146" lon="9.527192">
        <time>1970-01-01T00:00:00+00:00</time>
        <ele>123.0</ele>
      </trkpt>
    </trkseg>
  </trk>
</gpx>
